User: anonymous   Login
Location: Unspecified
(0.0000°N, 0.0000°E)
Time: 19:00:52
(UTC+00:00)
Language:

NOAA 3 - Orbit

View from above orbital plane
View from above orbital plane
View from above satellite
View from above satellite

Ground track
Ground track

The orbit data is extracted from the following two-line orbital elements,

1  6920U 73086A   18015.92779175 -.00000057 +00000-0 -93804-4 0  9995
2  6920 101.9735 346.7736 0006792 038.9132 338.6230 12.40351063000742
Epoch (UTC): 15 January 2018 22:16:01
Eccentricity: 0.0006792
inclination: 101.9735°
perigee height: 1500 km
apogee height: 1510 km
right ascension of ascending node: 346.7736°
argument of perigee: 38.9132°
revolutions per day: 12.40351063
mean anomaly at epoch: 338.6230°
orbit number at epoch: 74

The dashed part of the orbit path shows where the satellite is in the earth's shadow,  

DLR